Notices

What's New in latest Release from April 7th, 2021:

- Updated Glossary, including Speed of Maximum Gust, and Total Hourly Precipitation

- Updated national and regional climate services offices contacts and prices information

- Addition of station inventory lists for 1981-2010, 1971-2000, and 1961-1990 Normals.

If you haven't already, please take our survey and provide feedback about our website: https://eccc.sondage-survey.ca/f/LanguageSelection.aspx?s=442ca660-fcf1-47c0-95a9-59707d6fd709

Hourly Data Report for March 26, 2017

TORONTO CITY
ONTARIO

43°40'00.000" N
79°24'00.000" W
112.50 m
6158355
71508
XTO

Download Data

Hourly Data (March 2017)
Hourly Data Report for March 26, 2017
TIME
LST
Temp Definition
°C
Dew Point Definition
°C
Rel Hum Definition
%
Precip. Amount Definition
mm

Wind Dir Definition
10's deg

Wind Spd Definition
km/h
Visibility Definition
km
Stn Press Definition
kPa
Hmdx Definition


Wind Chill Definition


Weather Definition


00:00 2.1 -1.5 77 0.0 LegendMM LegendMM   101.38     LegendNANA
01:00 1.8 -1.5 79 0.0 LegendMM LegendMM   101.31     LegendNANA
02:00 1.8 -0.9 82 0.0 LegendMM LegendMM   101.31     LegendNANA
03:00 1.1 -0.5 89 1.7 LegendMM LegendMM   101.17     LegendNANA
04:00 1.4 -0.6 87 0.0 LegendMM LegendMM   101.11     LegendNANA
05:00 1.6 -0.5 86 0.0 LegendMM LegendMM   101.04     LegendNANA
06:00 2.1 0.2 87 0.0 LegendMM LegendMM   101.02     LegendNANA
07:00 2.4 0.6 88 0.0 LegendMM LegendMM   100.99     LegendNANA
08:00 2.6 1.0 89 0.0 LegendMM LegendMM   100.90     LegendNANA
09:00 2.8 1.0 89 0.0 LegendMM LegendMM   100.86     LegendNANA
10:00 2.9 0.6 85 0.0 LegendMM LegendMM   100.82     LegendNANA
11:00 3.0 0.7 85 0.0 LegendMM LegendMM   100.81     LegendNANA
12:00 2.6 1.1 90 0.0 LegendMM LegendMM   100.72     LegendNANA
13:00 2.7 1.0 88 0.0 LegendMM LegendMM   100.65     LegendNANA
14:00 3.3 0.9 84 0.0 LegendMM LegendMM   100.50     LegendNANA
15:00 4.1 1.1 81 0.0 LegendMM LegendMM   100.41     LegendNANA
16:00 4.4 1.3 81 0.0 LegendMM LegendMM   100.37     LegendNANA
17:00 4.8 1.8 81 0.0 LegendMM LegendMM   100.32     LegendNANA
18:00 5.0 2.0 81 0.0 LegendMM LegendMM   100.26     LegendNANA
19:00 4.7 2.3 84 0.0 LegendMM LegendMM   100.24     LegendNANA
20:00 5.2 2.7 84 0.0 LegendMM LegendMM   100.21     LegendNANA
21:00 5.7 3.2 84 0.0 LegendMM LegendMM   100.17     LegendNANA
22:00 6.0 4.2 88 0.2 LegendMM LegendMM   100.12     LegendNANA
23:00 6.2 4.6 90 0.3 LegendMM LegendMM   100.07     LegendNANA

Notes on Data Quality.

Legend

  • E = Estimated
  • M = Missing
  • NA = Not Available*
  • [empty] = Indicates an unobserved value
Date modified: